Location: Stilling
(56.0622°N, 9.9882°E)
Time: 13:25:18
(UTC+00:00)

APEX - Pass Details

Date: 13 July 2020
Orbit: 333 x 1107 km, 69.9° (Epoch: 07 August)

Event Time Altitude Azimuth Distance (km) Brightness Sun altitude
Rises 21:51:44 0° 314° (NW) 2,126 7.7 -9.8°
Reaches altitude 10° 21:53:56 10° 296° (WNW) 1,286 6.0 -9.9°
Maximum altitude 21:56:04 20° 245° (WSW) 868 4.3 -10.0°
Enters shadow 21:58:05 11° 196° (SSW) 1,276 4.7 -10.1°
